When you browse on this site, cookies collect data to enhance your experience and personalize the content and advertising you see.
Visit our Privacy Policy to learn more. By continuing to use the site, you agree to this use of cookies and data.
  • In Latvia
  • List of Countries
  • For 7 days
  • Water Temperature
  • Weather Map
  • Weather Widgets
  • user-avatar
    Login

    Hourly Weather Andora

    Today, 26 February, Wednesday

    Time Temperature Precipitation Wind Pressure Humidity
    00:00 -1°C° 0 mm 2 mps 620 mmHg 92%
    01:00 -1°C° 0 mm 2 mps 620 mmHg 91%
    02:00 -2°C° 0 mm 2 mps 619 mmHg 89%
    03:00 -2°C° 0 mm 3 mps 619 mmHg 88%
    04:00 -2°C° 0.1 mm 2 mps 619 mmHg 87%
    05:00 -3°C° 0.1 mm 2 mps 618 mmHg 85%
    06:00 -3°C° 0 mm 2 mps 618 mmHg 85%
    07:00 -2°C° 0.2 mm 3 mps 619 mmHg 78%
    08:00 -1°C° 0.2 mm 3 mps 620 mmHg 70%
    09:00 0°C° 0.2 mm 3 mps 620 mmHg 63%
    10:00 +1°C° 0.1 mm 3 mps 621 mmHg 60%
    11:00 +2°C° 0.1 mm 3 mps 621 mmHg 57%
    12:00 +1°C° 0.1 mm 4 mps 622 mmHg 54%
    13:00 +1°C° 0.2 mm 4 mps 621 mmHg 55%
    14:00 +1°C° 0.2 mm 4 mps 621 mmHg 57%
    15:00 0°C° 0.2 mm 4 mps 621 mmHg 58%
    16:00 0°C° 0.1 mm 3 mps 620 mmHg 65%
    17:00 -2°C° 0.1 mm 3 mps 620 mmHg 71%
    18:00 -3°C° 0.1 mm 2 mps 620 mmHg 78%
    19:00 -3°C° 0 mm 2 mps 620 mmHg 80%
    20:00 -4°C° 0 mm 2 mps 621 mmHg 82%
    21:00 -4°C° 0 mm 2 mps 621 mmHg 83%
    22:00 -4°C° 0 mm 2 mps 621 mmHg 82%
    23:00 -3°C° 0 mm 1 mps 621 mmHg 81%

    Tomorrow, 27 February, Thursday

    Time Temperature Precipitation Wind Pressure Humidity
    00:00 -3°C° 0 mm 1 mps 621 mmHg 80%
    01:00 -3°C° 0 mm 1 mps 620 mmHg 77%
    02:00 -3°C° 0 mm 1 mps 620 mmHg 74%
    03:00 -3°C° 0 mm 1 mps 620 mmHg 71%
    04:00 -3°C° 0 mm 1 mps 620 mmHg 71%
    05:00 -3°C° 0 mm 1 mps 620 mmHg 72%
    06:00 -2°C° 0 mm 1 mps 620 mmHg 73%
    07:00 -1°C° 0 mm 1 mps 620 mmHg 69%
    08:00 +1°C° 0 mm 1 mps 621 mmHg 66%
    09:00 +3°C° 0 mm 1 mps 621 mmHg 62%
    10:00 +3°C° 0 mm 2 mps 622 mmHg 55%
    11:00 +5°C° 0 mm 2 mps 622 mmHg 47%
    12:00 +7°C° 0 mm 2 mps 623 mmHg 40%
    13:00 +7°C° 0 mm 2 mps 623 mmHg 43%
    14:00 +7°C° 0 mm 2 mps 622 mmHg 46%
    15:00 +7°C° 0 mm 2 mps 622 mmHg 49%
    16:00 +5°C° 0.1 mm 2 mps 621 mmHg 62%
    17:00 +3°C° 0.1 mm 2 mps 621 mmHg 74%
    18:00 +1°C° 0.1 mm 2 mps 621 mmHg 87%
    19:00 +1°C° 0.2 mm 2 mps 621 mmHg 90%
    20:00 +1°C° 0.2 mm 2 mps 621 mmHg 92%
    21:00 +1°C° 0.2 mm 2 mps 621 mmHg 94%
    22:00 +2°C° 0.2 mm 2 mps 622 mmHg 95%
    23:00 +2°C° 0.2 mm 2 mps 622 mmHg 95%

    Day after tomorrow, 28 February, Friday

    Time Temperature Precipitation Wind Pressure Humidity
    00:00 +2°C° 0.2 mm 2 mps 622 mmHg 95%
    01:00 +2°C° 0.2 mm 2 mps 622 mmHg 95%
    02:00 +3°C° 0.2 mm 1 mps 622 mmHg 95%
    03:00 +3°C° 0.2 mm 1 mps 622 mmHg 95%
    04:00 +2°C° 0 mm 1 mps 623 mmHg 95%
    05:00 +2°C° 0 mm 1 mps 623 mmHg 94%
    06:00 +1°C° 0 mm 2 mps 623 mmHg 94%
    07:00 +4°C° 0 mm 1 mps 624 mmHg 86%
    08:00 +5°C° 0 mm 1 mps 624 mmHg 77%
    09:00 +6°C° 0 mm 0 mps 625 mmHg 69%
    10:00 +8°C° 0 mm 1 mps 626 mmHg 66%
    11:00 +10°C° 0 mm 1 mps 626 mmHg 62%
    12:00 +11°C° 0 mm 1 mps 626 mmHg 58%
    13:00 +11°C° 0 mm 1 mps 626 mmHg 60%
    14:00 +9°C° 0 mm 2 mps 625 mmHg 62%
    15:00 +9°C° 0 mm 2 mps 625 mmHg 64%
    16:00 +8°C° 0 mm 2 mps 624 mmHg 73%
    17:00 +6°C° 0 mm 2 mps 623 mmHg 81%
    18:00 +5°C° 0 mm 1 mps 622 mmHg 90%
    19:00 +4°C° 0 mm 2 mps 622 mmHg 91%
    20:00 +3°C° 0 mm 2 mps 622 mmHg 92%
    21:00 +3°C° 0 mm 2 mps 621 mmHg 93%
    22:00 +3°C° 0 mm 2 mps 621 mmHg 92%
    23:00 +2°C° 0 mm 2 mps 620 mmHg 91%

    29 February, Saturday

    Time Temperature Precipitation Wind Pressure Humidity
    00:00 +2°C° 0 mm 2 mps 620 mmHg 90%
    01:00 +2°C° 0 mm 2 mps 619 mmHg 89%
    02:00 +2°C° 0 mm 2 mps 618 mmHg 88%
    03:00 +2°C° 0 mm 2 mps 617 mmHg 87%
    04:00 +2°C° 0 mm 2 mps 617 mmHg 85%
    05:00 +2°C° 0 mm 2 mps 616 mmHg 83%
    06:00 +1°C° 0 mm 2 mps 616 mmHg 81%
    07:00 +3°C° 0 mm 2 mps 616 mmHg 75%
    08:00 +3°C° 0 mm 3 mps 617 mmHg 70%
    09:00 +5°C° 0 mm 3 mps 617 mmHg 64%
    10:00 +7°C° 0 mm 3 mps 618 mmHg 61%
    11:00 +8°C° 0 mm 3 mps 618 mmHg 57%
    12:00 +9°C° 0 mm 3 mps 619 mmHg 54%
    13:00 +8°C° 0 mm 3 mps 618 mmHg 58%
    14:00 +8°C° 0 mm 3 mps 618 mmHg 63%
    15:00 +7°C° 0 mm 3 mps 617 mmHg 67%
    16:00 +6°C° 0.1 mm 2 mps 617 mmHg 75%
    17:00 +4°C° 0.1 mm 2 mps 617 mmHg 82%
    18:00 +4°C° 0.1 mm 1 mps 617 mmHg 90%
    19:00 +4°C° 0.1 mm 1 mps 617 mmHg 91%
    20:00 +3°C° 0.1 mm 1 mps 617 mmHg 93%
    21:00 +3°C° 0.1 mm 1 mps 618 mmHg 94%
    22:00 +3°C° 0.2 mm 1 mps 618 mmHg 94%
    23:00 +2°C° 0.2 mm 1 mps 618 mmHg 95%

    1 March, Sunday

    Time Temperature Precipitation Wind Pressure Humidity
    00:00 +2°C° 0.2 mm 1 mps 618 mmHg 95%
    01:00 +1°C° 0.3 mm 1 mps 617 mmHg 96%
    02:00 +1°C° 0.3 mm 1 mps 617 mmHg 96%
    03:00 +1°C° 0.3 mm 1 mps 617 mmHg 96%
    04:00 0°C° 0.1 mm 1 mps 617 mmHg 96%
    05:00 0°C° 0.1 mm 1 mps 617 mmHg 96%
    06:00 -1°C° 0.1 mm 0 mps 617 mmHg 96%
    07:00 +1°C° 0 mm 1 mps 617 mmHg 92%
    08:00 -1°C° 0 mm 2 mps 618 mmHg 88%
    09:00 0°C° 0 mm 3 mps 618 mmHg 83%
    10:00 +1°C° 0 mm 3 mps 618 mmHg 78%
    11:00 +2°C° 0 mm 3 mps 618 mmHg 73%
    12:00 +3°C° 0 mm 3 mps 618 mmHg 68%
    13:00 +3°C° 0 mm 3 mps 618 mmHg 71%
    14:00 +3°C° 0 mm 3 mps 617 mmHg 73%
    15:00 +3°C° 0 mm 3 mps 616 mmHg 76%
    16:00 +3°C° 0.1 mm 2 mps 616 mmHg 82%
    17:00 +2°C° 0.1 mm 2 mps 616 mmHg 88%
    18:00 +2°C° 0.1 mm 1 mps 616 mmHg 94%
    19:00 +1°C° 0 mm 1 mps 616 mmHg 94%
    20:00 +1°C° 0 mm 1 mps 616 mmHg 94%
    21:00 +1°C° 0 mm 1 mps 617 mmHg 94%
    22:00 +1°C° 0 mm 1 mps 616 mmHg 93%
    23:00 -1°C° 0 mm 2 mps 616 mmHg 93%

    2 March, Monday

    Time Temperature Precipitation Wind Pressure Humidity
    00:00 -1°C° 0 mm 2 mps 616 mmHg 92%
    01:00 -1°C° 0.1 mm 2 mps 615 mmHg 93%
    02:00 +1°C° 0.1 mm 2 mps 614 mmHg 93%
    03:00 0°C° 0.1 mm 3 mps 613 mmHg 94%
    04:00 -1°C° 3 mm 2 mps 613 mmHg 95%
    05:00 -1°C° 3 mm 2 mps 612 mmHg 96%
    06:00 -1°C° 3 mm 2 mps 611 mmHg 96%
    07:00 +1°C° 0.3 mm 2 mps 611 mmHg 95%
    08:00 +1°C° 0.3 mm 2 mps 611 mmHg 94%
    09:00 +2°C° 0.3 mm 2 mps 611 mmHg 93%
    10:00 +3°C° 0.1 mm 2 mps 612 mmHg 89%
    11:00 +2°C° 0.1 mm 3 mps 612 mmHg 85%
    12:00 +3°C° 0.1 mm 3 mps 612 mmHg 81%
    13:00 +3°C° 0.4 mm 3 mps 612 mmHg 82%
    14:00 +3°C° 0.4 mm 2 mps 612 mmHg 84%
    15:00 +3°C° 0.4 mm 2 mps 612 mmHg 86%
    16:00 0°C° 1.5 mm 3 mps 612 mmHg 87%
    17:00 -2°C° 1.5 mm 4 mps 612 mmHg 88%
    18:00 -5°C° 1.5 mm 5 mps 612 mmHg 90%
    19:00 -6°C° 0.4 mm 5 mps 612 mmHg 90%
    20:00 -6°C° 0.4 mm 5 mps 613 mmHg 91%
    21:00 -8°C° 0.4 mm 6 mps 614 mmHg 91%
    22:00 -7°C° 0.7 mm 5 mps 614 mmHg 91%
    23:00 -7°C° 0.7 mm 4 mps 615 mmHg 92%
    Show more